Stations météo

Publicité
Perpignan, France (7747): Température de l'air & dewpoint: 04.08.2020 02:00:00 - 10.08.2020 02:00:00 (CEST)Perpignan, France (7747): Température de l'air 5cm: 04.08.2020 02:00:00 - 10.08.2020 02:00:00 (CEST)Perpignan, France (7747): Température de l'air -20cm & Température de l'air -100cm: 04.08.2020 02:00:00 - 10.08.2020 02:00:00 (CEST)Perpignan, France (7747): Vitesse du vent & gusts: 04.08.2020 02:00:00 - 10.08.2020 02:00:00 (CEST)Perpignan, France (7747): Direction du vent: 04.08.2020 02:00:00 - 10.08.2020 02:00:00 (CEST)Perpignan, France (7747): reduced air pressure: 04.08.2020 02:00:00 - 10.08.2020 02:00:00 (CEST)Perpignan, France (7747): visibility: 04.08.2020 02:00:00 - 10.08.2020 02:00:00 (CEST)Perpignan, France (7747): Quantités de précipitations: 04.08.2020 02:00:00 - 10.08.2020 02:00:00 (CEST)
Date & Time tt [°C] td [°C] tt 5cm [°C] tt -20cm [°C] tt -100cm [°C] ff [km/h] ff [knt] fx [km/h] fx [knt] dd ppp [hPa] vv [km] rr [mm]
10.08.2020 02:00:00 22,7 21,2 21,5 30,8 27,1 3 2 9 5 W 1013,7 14 0,0
10.08.2020 01:00:00 23,0 21,1 21,6 31,0 27,1 6 3 8 5 W 1013,7 18 0,0
10.08.2020 00:00:00 23,4 21,7 23,8 31,2 27,1 4 2 14 8 W 1014,2 23 0,0
09.08.2020 23:00:00 23,6 22,2 24,1 31,3 27,0 10 5 31 17 N 1014,4 16 0,0
09.08.2020 22:00:00 23,7 22,0 23,7 31,5 27,1 20 11 29 16 NE 1014,4 19 0,0
09.08.2020 21:00:00 24,1 21,4 23,6 31,6 27,1 7 4 16 9 NE 1013,6 31 0,0
09.08.2020 20:00:00 25,1 21,4 25,9 31,7 27,1 7 4 16 9 ENE 1013,7 42 0,0
09.08.2020 19:00:00 25,4 21,3 27,3 31,7 27,1 3 2 18 10 E 1013,9 40 0,0
09.08.2020 18:00:00 25,5 21,4 27,4 31,7 27,1 5 3 13 7 NE 1014,5 40 0,0
09.08.2020 17:00:00 25,8 21,0 27,9 31,6 27,1 9 5 21 11 E 1014,7 38 0,0
09.08.2020 16:00:00 26,0 21,0 28,3 31,3 27,0 9 5 23 12 ESE 1015,2 39 0,0
09.08.2020 15:00:00 29,1 20,3 32,7 30,8 27,0 11 6 24 13 E 1015,4 46 0,0
09.08.2020 14:00:00 31,2 21,4 36,8 30,5 27,1 13 7 28 15 E 1015,6 42 0,0
09.08.2020 13:00:00 30,4 21,8 37,8 30,2 27,0 13 7 24 13 ENE 1016,6 40 0,0
09.08.2020 12:00:00 29,4 22,1 39,4 30,0 27,0 10 5 23 12 SE 1016,7 25 0,0
09.08.2020 11:00:00 27,7 21,7 32,9 30,1 27,0 7 4 19 10 E 1017,1 28 0,0
09.08.2020 10:00:00 25,1 21,8 26,2 30,1 27,0 6 3 13 7 E 1017,5 20 0,0
09.08.2020 09:00:00 23,3 21,6 24,1 30,3 27,0 3 1 9 5 E 1017,5 17 0,0
09.08.2020 08:00:00 22,7 21,5 22,8 30,5 27,0 4 2 10 5 SE 1017,4 12 0,0
09.08.2020 07:00:00 22,5 21,7 22,7 30,7 27,0 6 4 15 8 ESE 1017,5 9 0,0
09.08.2020 06:00:00 22,8 22,0 22,8 30,9 27,0 8 4 19 10 E 1017,3 1,9 0,0
09.08.2020 05:00:00 22,9 22,1 21,7 31,2 27,0 6 3 13 7 ESE 1017,1 6 0,0
09.08.2020 04:00:00 22,7 21,7 21,3 31,4 26,9 5 3 11 6 E 1017,0 6 0,0
09.08.2020 03:00:00 22,9 21,7 21,9 31,6 26,9 9 5 15 8 NE 1016,6 10 0,0
09.08.2020 02:00:00 23,2 21,6 21,9 31,9 26,9 5 3 9 5 NE 1016,2 15 0,0
09.08.2020 01:00:00 23,6 21,5 22,6 32,1 27,0 7 4 17 9 NE 1016,4 19 0,0
09.08.2020 00:00:00 25,3 22,2 22,2 32,3 27,0 5 3 10 6 ENE 1016,2 26 0,0
08.08.2020 23:00:00 26,5 21,7 23,5 32,4 26,9 6 4 12 6 N 1016,1 32 0,0
08.08.2020 22:00:00 27,6 21,9 24,7 32,6 26,9 6 3 10 6 NNW 1015,9 37 0,0
08.08.2020 21:00:00 28,6 21,9 26,4 32,6 27,0 6 3 11 6 N 1015,5 43 0,0
08.08.2020 20:00:00 30,5 21,3 31,2 32,4 26,9 7 4 14 8 NE 1015,3 53 0,0
08.08.2020 19:00:00 31,4 21,0 34,9 32,2 26,9 7 4 16 9 E 1015,2 50 0,0
08.08.2020 18:00:00 30,9 21,4 35,4 31,8 26,9 10 5 22 12 E 1015,9 49 0,0
08.08.2020 17:00:00 30,4 20,9 36,5 31,3 26,9 15 8 26 14 E 1016,3 60 0,0
08.08.2020 16:00:00 31,2 20,8 38,5 30,8 26,9 14 8 25 14 ESE 1016,7 60 0,0
08.08.2020 15:00:00 31,9 21,4 37,4 30,3 26,9 16 8 36 20 E 1017,0 60 0,0
08.08.2020 14:00:00 32,4 21,6 41,4 29,8 26,9 13 7 24 13 ESE 1017,3 53 0,0
08.08.2020 13:00:00 32,5 21,4 43,2 29,5 26,9 9 5 19 10 ESE 1018,0 19 0,0
08.08.2020 12:00:00 30,5 21,0 40,4 29,3 26,9 8 5 18 10 SSE 1018,7 60 0,0
08.08.2020 11:00:00 27,8 21,1 39,2 29,3 26,9 6 4 15 8 S 1019,2 56 0,0
08.08.2020 10:00:00 25,2 20,7 28,7 29,3 26,9 5 3 12 6 SW 1019,9 19 0,0
08.08.2020 09:00:00 23,4 20,7 25,4 29,5 26,9 4 2 9 5 S 1020,0 20 0,0
08.08.2020 08:00:00 22,8 20,7 22,8 29,6 26,9 6 3 10 5 SW 1019,8 20 0,0
08.08.2020 07:00:00 22,3 20,4 22,5 29,8 26,9 3 2 10 5 SE 1019,6 27 0,0
08.08.2020 06:00:00 22,1 20,4 21,9 29,9 26,9 2 1 15 8 SSE 1019,4 27 0,0
08.08.2020 05:00:00 22,3 20,8 22,1 30,1 26,9 9 5 14 7 E 1019,0 26 0,0
08.08.2020 04:00:00 22,1 21,1 21,5 30,3 26,9 8 4 11 6 SSW 1019,5 20 0,0
08.08.2020 03:00:00 21,8 20,8 21,4 30,5 26,9 5 3 11 6 NE 1019,6 16 0,0
08.08.2020 02:00:00 22,1 21,3 22,0 30,7 26,9 5 3 16 9 N 1019,3 15 0,0
08.08.2020 01:00:00 22,0 21,3 22,3 30,9 26,9 13 7 19 11 NE 1018,6 0,9 0,0
08.08.2020 00:00:00 22,4 21,4 19,6 31,1 26,9 7 4 16 9 NE 1018,3 0,4 0,0
07.08.2020 23:00:00 23,2 21,3 19,7 31,3 26,9 3 2 8 4 WNW 1017,9 20 0,0
07.08.2020 22:00:00 23,9 21,8 21,1 31,4 26,9 5 3 9 5 NW 1017,4 25 0,0
07.08.2020 21:00:00 24,4 22,1 23,5 31,4 26,9 7 4 14 8 NNE 1017,1 33 0,0
07.08.2020 20:00:00 25,8 22,3 26,8 31,2 26,9 10 6 25 13 NE 1016,8 36 0,0
07.08.2020 19:00:00 26,9 21,9 31,1 30,9 26,9 11 6 27 15 NE 1016,9 19 0,0
07.08.2020 18:00:00 27,7 21,7 33,2 30,6 26,9 12 7 24 13 ENE 1017,2 20 0,0
07.08.2020 17:00:00 27,7 21,3 35,2 30,1 26,9 12 6 27 14 ENE 1017,7 20 0,0
07.08.2020 16:00:00 27,4 21,0 36,2 29,6 26,9 16 8 27 15 NE 1018,0 20 0,0
07.08.2020 15:00:00 28,0 20,8 34,8 29,1 26,9 14 8 31 17 E 1018,2 20 0,0
07.08.2020 14:00:00 27,4 20,2 38,1 28,7 26,9 18 10 31 17 ENE 1018,5 40 0,0
07.08.2020 13:00:00 26,6 20,0 37,3 28,4 26,9 17 9 28 15 NE 1018,6 19 0,0
07.08.2020 12:00:00 25,5 19,9 32,4 28,3 26,8 14 8 23 12 ENE 1018,8 20 0,0
07.08.2020 11:00:00 24,1 19,4 29,8 28,4 26,9 14 8 22 12 NNE 1018,7 38 0,0
07.08.2020 10:00:00 23,1 19,1 25,5 28,5 26,8 11 6 18 10 NE 1018,4 42 0,0
07.08.2020 09:00:00 20,4 19,2 21,1 28,7 26,9 2 1 11 6 W 1018,5 3,9 0,0
07.08.2020 08:00:00 19,0 14,7 13,3 28,9 26,8 5 3 9 5 WSW 1018,1 17 0,0
07.08.2020 07:00:00 16,6 12,7 13,0 29,2 26,9 5 3 9 5 WSW 1017,9 57 0,0
07.08.2020 06:00:00 16,8 12,9 13,3 29,5 26,9 5 3 9 5 W 1017,3 59 0,0
07.08.2020 05:00:00 17,7 14,6 13,3 29,8 26,9 3 1 9 5 ESE 1017,1 59 0,0
07.08.2020 04:00:00 18,1 13,6 14,2 30,1 26,9 7 4 11 6 WSW 1017,0 60 0,0
07.08.2020 03:00:00 19,4 16,2 14,7 30,4 26,9 2 1 9 5 SSW 1017,3 49 0,0
07.08.2020 02:00:00 20,9 17,9 16,9 30,7 26,9 6 3 9 5 NE 1017,4 48 0,0
07.08.2020 01:00:00 21,6 16,5 16,2 31,0 26,9 5 3 12 6 NNE 1017,4 55 0,0
07.08.2020 00:00:00 21,8 10,3 16,4 31,2 26,9 5 3 14 8 NNE 1016,9 60 0,0
06.08.2020 23:00:00 22,8 10,6 16,8 31,4 26,9 9 5 13 7 SW 1016,4 60 0,0
06.08.2020 22:00:00 24,4 10,7 18,5 31,6 26,9 5 3 9 5 NW 1016,0 60 0,0
06.08.2020 21:00:00 26,8 11,3 21,6 31,6 26,9 4 2 11 6 NE 1015,4 60 0,0
06.08.2020 20:00:00 28,7 10,4 28,6 31,5 26,9 6 3 18 10 NNE 1015,2 46 0,0
06.08.2020 19:00:00 29,0 10,2 32,2 31,2 26,9 12 7 31 17 E 1015,2 57 0,0
06.08.2020 18:00:00 29,7 10,8 34,1 30,7 26,9 18 10 29 15 ESE 1015,4 60 0,0
06.08.2020 17:00:00 31,0 10,9 36,6 30,3 26,9 16 9 28 15 E 1015,5 18 0,0
06.08.2020 16:00:00 31,5 10,8 38,3 29,7 26,9 17 9 29 16 E 1015,7 60 0,0
06.08.2020 15:00:00 31,0 9,2 36,2 29,1 26,9 17 9 32 17 ESE 1015,9 60 0,0
06.08.2020 14:00:00 31,0 9,2 39,9 28,6 26,9 16 8 26 14 E 1016,2 60 0,0
06.08.2020 13:00:00 31,4 9,0 41,2 28,2 26,9 13 7 28 15 ESE 1016,4 60 0,0
06.08.2020 12:00:00 30,8 9,1 41,4 28,0 26,9 16 9 26 14 E 1016,5 60 0,0
06.08.2020 11:00:00 30,2 7,4 40,8 28,0 26,9 10 5 20 11 ENE 1016,4 55 0,0
06.08.2020 10:00:00 28,1 6,8 38,2 28,1 26,9 4 2 9 5 NNE 1016,4 58 0,0
06.08.2020 09:00:00 24,2 8,2 22,0 28,4 26,9 3 2 13 7 N 1016,4 60 0,0
06.08.2020 08:00:00 19,9 8,6 13,5 28,6 26,9 6 3 12 7 SW 1016,2 60 0,0
06.08.2020 07:00:00 16,4 7,6 11,8 28,9 26,9 8 5 12 6 WSW 1016,0 60 0,0
06.08.2020 06:00:00 16,5 7,9 12,6 29,2 26,9 7 4 12 6 WSW 1015,6 60 0,0
06.08.2020 05:00:00 19,0 8,0 13,6 29,5 26,9 8 4 19 11 N 1015,3 60 0,0
06.08.2020 04:00:00 18,8 7,9 13,2 29,7 26,9 5 3 16 8 N 1015,3 60 0,0
06.08.2020 03:00:00 19,3 7,7 15,8 30,0 26,9 11 6 18 10 WSW 1015,3 60 0,0
06.08.2020 02:00:00 19,8 7,5 15,9 30,3 26,9 12 7 17 9 WSW 1015,3 60 0,0
06.08.2020 01:00:00 19,9 7,9 14,5 30,6 26,9 13 7 17 9 SW 1015,2 60 0,0
06.08.2020 00:00:00 20,4 7,4 14,9 30,9 26,9 6 3 9 5 SW 1015,1 60 0,0
05.08.2020 23:00:00 21,7 6,8 15,4 31,1 26,9 5 3 13 7 WSW 1014,7 60 0,0
05.08.2020 22:00:00 22,8 6,9 16,9 31,3 26,9 7 4 8 4 WNW 1014,1 60 0,0
05.08.2020 21:00:00 26,3 6,8 22,9 31,3 26,9 6 4 13 7 E 1013,3 60 0,0
05.08.2020 20:00:00 28,8 5,0 28,7 31,1 26,9 9 5 23 12 E 1012,9 60 0,0
05.08.2020 19:00:00 29,6 4,3 32,7 30,8 26,9 14 8 24 13 SE 1012,6 58 0,0
05.08.2020 18:00:00 30,2 4,7 35,3 30,4 26,9 15 8 29 15 ESE 1012,5 20 0,0
05.08.2020 17:00:00 31,0 4,7 36,7 29,9 27,0 16 9 31 17 ESE 1012,6 60 0,0
05.08.2020 16:00:00 30,6 4,3 37,6 29,3 26,9 16 8 33 18 ESE 1013,1 60 0,0
05.08.2020 15:00:00 30,1 4,7 35,8 28,8 26,9 16 9 34 19 ESE 1013,3 60 0,0
05.08.2020 14:00:00 30,3 5,5 39,3 28,3 26,9 19 10 35 19 E 1013,6 60 0,0
05.08.2020 13:00:00 30,4 6,3 44,6 27,9 26,9 14 8 32 17 ENE 1013,8 20 0,0
05.08.2020 12:00:00 29,5 4,2 49,8 27,7 26,9 14 8 36 20 N 1013,9 60 0,0
05.08.2020 11:00:00 28,0 6,1 45,7 27,7 26,9 16 9 37 20 NW 1013,9 45 0,0
05.08.2020 10:00:00 26,4 7,4 34,2 27,8 26,9 17 9 32 18 WNW 1014,4 60 0,0
05.08.2020 09:00:00 24,0 7,2 23,0 28,0 26,9 19 11 32 17 W 1014,3 20 0,0
05.08.2020 08:00:00 21,0 7,6 14,2 28,3 26,9 9 5 20 11 SW 1014,6 51 0,0
05.08.2020 07:00:00 18,3 7,1 12,6 28,5 27,0 9 5 18 10 SW 1014,4 60 0,0
05.08.2020 06:00:00 18,7 6,8 12,6 28,8 26,9 8 4 14 8 SSW 1014,6 60 0,0
05.08.2020 05:00:00 19,9 6,9 14,5 29,0 26,9 6 4 23 12 WNW 1014,8 60 0,0
05.08.2020 04:00:00 21,3 6,8 17,8 29,2 26,9 14 8 33 18 WNW 1014,6 60 0,0
05.08.2020 03:00:00 22,1 6,7 18,4 29,5 26,9 22 12 34 18 WNW 1014,7 60 0,0
05.08.2020 02:00:00 21,3 7,5 17,7 29,8 27,0 18 10 26 14 W 1015,2 60 0,0
05.08.2020 01:00:00 20,7 7,0 17,4 30,0 27,0 17 9 24 13 W 1015,5 60 0,0
05.08.2020 00:00:00 23,0 6,7 20,0 30,3 27,0 15 8 26 14 WNW 1015,5 60 0,0
04.08.2020 23:00:00 24,5 6,7 21,1 30,4 27,0 15 8 40 21 NNW 1015,2 60 0,0
04.08.2020 22:00:00 25,1 7,2 22,4 30,6 27,0 21 11 45 25 NNW 1014,9 60 0,0
04.08.2020 21:00:00 25,7 6,8 24,0 30,6 27,0 22 12 53 29 NNW 1014,3 60 0,0
04.08.2020 20:00:00 27,4 7,3 27,5 30,5 27,0 29 16 61 33 NNW 1013,4 38 0,0
04.08.2020 19:00:00 28,5 6,6 32,5 30,3 27,0 28 15 65 35 NW 1013,1 21 0,0
04.08.2020 18:00:00 28,6 6,6 34,5 30,0 27,0 33 18 61 33 NW 1013,1 20 0,0
04.08.2020 17:00:00 29,0 7,5 38,3 29,6 27,0 29 16 61 33 NW 1013,4 21 0,0
04.08.2020 16:00:00 28,7 7,8 39,7 29,2 27,0 31 17 58 31 NW 1013,8 18 0,0
04.08.2020 15:00:00 28,2 6,9 37,6 28,8 27,0 33 18 65 35 WNW 1014,0 20 0,0
04.08.2020 14:00:00 26,5 8,5 40,2 28,5 27,1 37 20 74 40 NW 1014,4 17 0,0
04.08.2020 13:00:00 26,0 9,3 41,5 28,3 27,0 35 19 67 36 NW 1015,2 29 0,0
04.08.2020 12:00:00 24,9 10,0 35,4 28,1 27,0 33 18 63 34 NW 1015,5 30 0,0
04.08.2020 11:00:00 24,0 11,0 32,0 28,2 27,1 25 13 61 33 NW 1015,9 33 0,0
04.08.2020 10:00:00 22,4 11,2 31,0 28,3 27,0 31 17 52 28 WNW 1016,5 35 0,0
04.08.2020 09:00:00 21,6 12,2 22,1 28,5 27,1 23 12 48 26 NW 1016,3 37 0,0
04.08.2020 08:00:00 20,8 12,2 19,8 28,6 27,0 31 17 52 28 NW 1016,1 19 0,0
04.08.2020 07:00:00 20,5 12,7 19,5 28,8 27,0 28 15 48 26 NW 1015,8 48 0,0
04.08.2020 06:00:00 20,6 13,5 19,3 29,0 27,0 24 13 43 23 NW 1015,4 60 0,0
04.08.2020 05:00:00 21,0 13,2 19,7 29,2 27,0 21 12 35 19 WNW 1015,1 60 0,0
04.08.2020 04:00:00 21,7 13,1 20,4 29,5 27,1 14 7 32 17 WNW 1015,5 60 0,0
04.08.2020 03:00:00 22,2 13,0 20,6 29,6 27,0 22 12 45 24 NW 1015,8 60 0,0
04.08.2020 02:00:00 22,5 12,7 21,0 29,9 27,1 28 15 52 28 WNW 1015,9 60 0,0

tt = Température de l'air
td = dewpoint
tt 5cm = Température de l'air 5cm
tt -20cm = Température de l'air -20cm
tt -100cm = Température de l'air -100cm
ff = Vitesse du vent
fx = gusts
dd = Direction du vent
ppp = reduced air pressure
vv = visibility
rr = Quantités de précipitations

stations d'obs. à proximité